Find Starlink 2140

NORAD ID: 47730 Int'l Des: 2021-017 Owner: SPXS Country: US Constellation: starlink operational
LEOCIRCULARSTARLINK_TYPE

現在のビュー

3D地球を読み込み中...

About Starlink 2140

Starlink 2140 (NORAD 47730) is a starlink constellation satellite (v1.0) launched Mar 4, 2021 by SPXS of US. It operates in LEO, CIRCULAR, STARLINK_TYPE orbit with a mass of 260.00 kg.

Starlink 2140について

説明を読み込み中...

次回通過

Passes for default location (London). Set your location on the main map for personalized predictions.

高度履歴

Loading altitude history...

軌道要素

1 47730U 21017J 26169.08308782 -.00000366 00000-0 -28268-7 0 9992
2 47730 53.1593 109.9304 0001473 65.5692 294.5463 15.31701904293034
Epoch: Jun 18, 2026 • Age: 15 hours

現在のステータス

高度 488.8 km
速度 7.62 km/s
衛星直下点 -49.57°S, 176.72°W
打ち上げ日 Mar 4, 2021
運用期間 5.2 years
タイプ internet

技術仕様

分類 Payload
質量 260.00 kg
乾燥質量 248.00 kg
総質量 260.00 kg
長さ 0.20 m
直径 2.80 m
スパン 9.00 m
形状 Box + pan
製造者 SPXS
バスタイプ Starlink
フェーズステータス In Orbit
所有者/国 SPXS/US

Most Searched